AAL568 KSAT-KDAY

Flight info

Callsign AAL568
Flight time N/A
Altitude 39000
Route YODUH2 KLNGR FUZ SHB RID
Aircraft B77W/H-SDE1E2E3FGHIJ2J3J4J5M1RWXY/LB1D1

Departure

Time 2026-04-25 06:15
Airport San Antonio International Airport (KSAT)

Arrival

Time N/A
Airport James M. Cox Dayton International Airport (KDAY)
Time Latitude Longitude Altitude Speed Heading
2026-04-25 05:38 29.53078 -98.47494 802 ft 0 kts 39°
2026-04-25 06:09 29.53079 -98.47494 803 ft 2 kts 39°
2026-04-25 06:09 29.53110 -98.47465 803 ft 19 kts 39°
2026-04-25 06:09 29.53251 -98.47436 804 ft 28 kts 320°
2026-04-25 06:09 29.53365 -98.47574 805 ft 38 kts 311°
2026-04-25 06:10 29.53537 -98.47797 808 ft 36 kts 311°
2026-04-25 06:10 29.53697 -98.48006 810 ft 33 kts 311°
2026-04-25 06:10 29.53744 -98.48066 814 ft 0 kts 312°
2026-04-25 06:12 29.53797 -98.48133 816 ft 29 kts 312°
2026-04-25 06:13 29.53958 -98.48336 819 ft 34 kts 312°
2026-04-25 06:13 29.54090 -98.48504 819 ft 9 kts 310°
2026-04-25 06:13 29.54133 -98.48561 820 ft 10 kts 311°
2026-04-25 06:14 29.54249 -98.48563 821 ft 6 kts 58°
2026-04-25 06:14 29.54203 -98.48459 819 ft 40 kts 129°
2026-04-25 06:14 29.53809 -98.47955 811 ft 131 kts 132°
2026-04-25 06:14 29.53038 -98.46971 940 ft 193 kts 133°
2026-04-25 06:15 29.52264 -98.45697 1790 ft 192 kts 112°
2026-04-25 06:15 29.52228 -98.44177 2947 ft 198 kts 77°
2026-04-25 06:15 29.52947 -98.42800 3721 ft 211 kts 41°
2026-04-25 06:15 29.54324 -98.42048 4174 ft 238 kts
2026-04-25 06:16 29.56087 -98.41980 4502 ft 269 kts 359°
2026-04-25 06:16 29.57993 -98.41997 5389 ft 279 kts 359°
2026-04-25 06:16 29.59943 -98.42015 6524 ft 281 kts 358°
2026-04-25 06:16 29.61899 -98.42032 7635 ft 283 kts 357°
2026-04-25 06:17 29.63876 -98.42045 8776 ft 284 kts 357°
2026-04-25 06:17 29.65843 -98.42055 9858 ft 287 kts 357°
2026-04-25 06:17 29.67891 -98.42062 10677 ft 300 kts 357°
2026-04-25 06:17 29.70073 -98.42067 10992 ft 331 kts 358°
2026-04-25 06:18 29.72490 -98.42068 11359 ft 357 kts 358°
2026-04-25 06:18 29.75008 -98.42061 12182 ft 368 kts 358°
2026-04-25 06:18 29.77564 -98.42051 13149 ft 374 kts 358°
2026-04-25 06:18 29.80205 -98.42042 14110 ft 379 kts 358°
2026-04-25 06:19 29.82869 -98.42036 15084 ft 383 kts 357°
2026-04-25 06:19 29.85531 -98.42021 16078 ft 388 kts 358°
2026-04-25 06:19 29.88259 -98.41827 17059 ft 394 kts
2026-04-25 06:19 29.90983 -98.41469 18026 ft 400 kts
2026-04-25 06:20 29.93764 -98.41063 18845 ft 405 kts
2026-04-25 06:20 29.96566 -98.40662 19711 ft 409 kts
2026-04-25 06:20 29.99427 -98.40273 20600 ft 413 kts
2026-04-25 06:20 30.02302 -98.39899 21442 ft 417 kts
2026-04-25 06:21 30.05186 -98.39531 22249 ft 422 kts
2026-04-25 06:21 30.08130 -98.39069 23054 ft 430 kts
2026-04-25 06:21 30.11055 -98.38260 23746 ft 439 kts
2026-04-25 06:21 30.14025 -98.37326 24424 ft 443 kts
2026-04-25 06:22 30.17029 -98.36378 25111 ft 447 kts
2026-04-25 06:22 30.20045 -98.35434 25798 ft 451 kts
2026-04-25 06:22 30.23052 -98.34501 26461 ft 455 kts
2026-04-25 06:22 30.26136 -98.33552 27105 ft 459 kts
2026-04-25 06:23 30.29253 -98.32599 27732 ft 463 kts
2026-04-25 06:23 30.32353 -98.31653 28337 ft 467 kts
2026-04-25 06:23 30.35519 -98.30688 28934 ft 471 kts
2026-04-25 06:23 30.38684 -98.29722 29505 ft 476 kts
2026-04-25 06:24 30.41915 -98.28736 30046 ft 479 kts
2026-04-25 06:24 30.45143 -98.27749 30488 ft 483 kts
2026-04-25 06:24 30.48405 -98.26750 30921 ft 486 kts
2026-04-25 06:24 30.51712 -98.25737 31329 ft 489 kts
2026-04-25 06:25 30.54984 -98.24734 31727 ft 492 kts
2026-04-25 06:25 30.58313 -98.23712 32217 ft 491 kts
2026-04-25 06:25 30.61588 -98.22704 32785 ft 490 kts
2026-04-25 06:25 30.64863 -98.21695 33356 ft 488 kts
2026-04-25 06:26 30.68153 -98.20682 33887 ft 487 kts
2026-04-25 06:26 30.71407 -98.19680 34316 ft 486 kts
2026-04-25 06:26 30.74704 -98.18666 34745 ft 485 kts
2026-04-25 06:26 30.77945 -98.17668 35162 ft 484 kts
2026-04-25 06:27 30.81183 -98.16670 35598 ft 483 kts
2026-04-25 06:27 30.84452 -98.15662 36008 ft 482 kts
2026-04-25 06:27 30.87681 -98.14666 36380 ft 482 kts
2026-04-25 06:27 30.90906 -98.13670 36769 ft 481 kts
2026-04-25 06:28 30.94148 -98.12668 37140 ft 480 kts
2026-04-25 06:28 30.97379 -98.11669 37519 ft 479 kts
2026-04-25 06:28 31.00624 -98.10664 37880 ft 479 kts
2026-04-25 06:28 31.03829 -98.09671 38243 ft 478 kts
2026-04-25 06:29 31.07011 -98.08684 38576 ft 477 kts
2026-04-25 06:29 31.10257 -98.07678 38731 ft 480 kts
2026-04-25 06:29 31.13474 -98.06682 38770 ft 483 kts
2026-04-25 06:30 31.19935 -98.04669 38786 ft 479 kts
2026-04-25 06:30 31.26253 -98.02085 38785 ft 484 kts 14°
2026-04-25 06:31 31.32419 -97.98899 38779 ft 483 kts 15°
2026-04-25 06:31 31.38558 -97.95728 38783 ft 482 kts 14°
2026-04-25 06:32 31.44720 -97.92578 38787 ft 482 kts 14°
2026-04-25 06:32 31.50863 -97.89451 38788 ft 484 kts 14°
2026-04-25 06:33 31.57054 -97.86296 38785 ft 486 kts 14°
2026-04-25 06:33 31.63261 -97.83127 38773 ft 488 kts 15°
2026-04-25 06:34 31.69474 -97.79948 38766 ft 489 kts 15°
2026-04-25 06:34 31.75745 -97.76735 38754 ft 491 kts 15°
2026-04-25 06:35 31.81994 -97.73527 38754 ft 491 kts 15°
2026-04-25 06:35 31.88256 -97.70308 38755 ft 492 kts 15°
2026-04-25 06:36 31.94527 -97.67080 38755 ft 493 kts 15°
2026-04-25 06:36 32.00809 -97.63842 38754 ft 493 kts 15°
2026-04-25 06:37 32.07052 -97.60619 38752 ft 493 kts 15°
2026-04-25 06:37 32.13380 -97.57350 38766 ft 498 kts 15°
2026-04-25 06:38 32.19766 -97.54050 38772 ft 507 kts 16°
2026-04-25 06:38 32.26271 -97.50678 38769 ft 514 kts 16°
2026-04-25 06:39 32.32835 -97.47266 38771 ft 519 kts 16°
2026-04-25 06:39 32.39478 -97.43807 38771 ft 524 kts 16°
2026-04-25 06:40 32.46155 -97.40325 38770 ft 527 kts 16°
2026-04-25 06:40 32.52871 -97.36818 38820 ft 529 kts 16°
2026-04-25 06:41 32.59640 -97.33277 38821 ft 530 kts 16°
2026-04-25 06:41 32.66278 -97.29799 38813 ft 530 kts 16°
2026-04-25 06:42 32.72993 -97.26274 38799 ft 529 kts 16°
2026-04-25 06:42 32.79752 -97.22720 38799 ft 528 kts 16°
2026-04-25 06:43 32.86363 -97.18920 38781 ft 536 kts 25°
2026-04-25 06:43 32.92251 -97.13282 38791 ft 550 kts 40°
2026-04-25 06:44 32.97153 -97.06302 38795 ft 554 kts 46°
2026-04-25 06:44 33.01997 -96.99121 38797 ft 553 kts 46°
2026-04-25 06:45 33.06852 -96.92008 38823 ft 553 kts 45°
2026-04-25 06:45 33.11701 -96.84974 38820 ft 552 kts 45°
2026-04-25 06:46 33.16592 -96.77889 38827 ft 552 kts 45°
2026-04-25 06:46 33.21472 -96.70799 38833 ft 552 kts 45°
2026-04-25 06:47 33.26334 -96.63715 38838 ft 551 kts 45°
2026-04-25 06:47 33.31183 -96.56633 38837 ft 551 kts 45°
2026-04-25 06:48 33.36045 -96.49518 38829 ft 551 kts 45°
2026-04-25 06:48 33.40877 -96.42434 38826 ft 550 kts 45°
2026-04-25 06:49 33.45696 -96.35356 38815 ft 550 kts 46°
2026-04-25 06:49 33.50547 -96.28216 38820 ft 550 kts 46°
2026-04-25 06:50 33.55338 -96.21152 38817 ft 550 kts 46°
2026-04-25 06:50 33.60167 -96.14018 38823 ft 549 kts 46°
2026-04-25 06:51 33.64997 -96.06868 38824 ft 549 kts 46°
2026-04-25 06:51 33.69811 -95.99728 38824 ft 549 kts 46°
2026-04-25 06:52 33.74591 -95.92623 38825 ft 549 kts 46°
2026-04-25 06:52 33.79404 -95.85456 38827 ft 549 kts 46°
2026-04-25 06:53 33.84172 -95.78342 38830 ft 549 kts 46°
2026-04-25 06:53 33.88968 -95.71171 38841 ft 549 kts 46°
2026-04-25 06:54 33.93755 -95.64001 38848 ft 549 kts 46°
2026-04-25 06:54 33.98528 -95.56835 38854 ft 549 kts 46°
2026-04-25 06:55 34.03319 -95.49629 38853 ft 549 kts 46°
2026-04-25 06:55 34.08066 -95.42474 38849 ft 549 kts 46°
2026-04-25 06:56 34.12856 -95.35241 38848 ft 549 kts 47°
2026-04-25 06:56 34.17612 -95.28046 38841 ft 549 kts 47°
2026-04-25 06:57 34.22371 -95.20830 38836 ft 549 kts 47°
2026-04-25 06:57 34.27121 -95.13615 38839 ft 549 kts 47°
2026-04-25 06:58 34.31873 -95.06380 38842 ft 550 kts 47°
2026-04-25 06:58 34.35836 -95.00336 38842 ft 550 kts 47°
2026-04-25 06:59 34.41362 -94.91891 38841 ft 550 kts 47°
2026-04-25 06:59 34.46114 -94.84612 38840 ft 550 kts 47°
2026-04-25 07:00 34.50845 -94.77352 38830 ft 550 kts 47°
2026-04-25 07:00 34.54813 -94.71250 38847 ft 550 kts 47°
2026-04-25 07:01 34.59550 -94.63953 38829 ft 551 kts 47°
2026-04-25 07:01 34.64272 -94.56664 38848 ft 550 kts 47°
2026-04-25 07:02 34.69002 -94.49347 38843 ft 551 kts 47°
2026-04-25 07:02 34.73708 -94.42051 38846 ft 551 kts 47°
2026-04-25 07:03 34.78457 -94.34675 38851 ft 551 kts 47°
2026-04-25 07:03 34.83157 -94.27359 38853 ft 551 kts 47°
2026-04-25 07:04 34.87876 -94.19999 38850 ft 551 kts 47°
2026-04-25 07:04 34.92585 -94.12639 38854 ft 552 kts 47°
2026-04-25 07:05 34.97308 -94.05241 38851 ft 552 kts 47°
2026-04-25 07:05 35.02033 -93.97825 38851 ft 552 kts 48°
2026-04-25 07:06 35.06727 -93.90441 38859 ft 552 kts 48°
2026-04-25 07:06 35.11416 -93.83050 38856 ft 552 kts 48°
2026-04-25 07:07 35.16093 -93.75663 38864 ft 551 kts 48°
2026-04-25 07:07 35.20785 -93.68236 38863 ft 551 kts 48°
2026-04-25 07:08 35.25465 -93.60811 38867 ft 551 kts 48°
2026-04-25 07:08 35.30140 -93.53379 38864 ft 551 kts 48°
2026-04-25 07:09 35.34814 -93.45934 38867 ft 550 kts 48°
2026-04-25 07:09 35.39451 -93.38531 38870 ft 550 kts 48°
2026-04-25 07:10 35.44111 -93.31076 38872 ft 550 kts 48°
2026-04-25 07:10 35.48766 -93.23613 38877 ft 549 kts 49°
2026-04-25 07:11 35.53380 -93.16200 38866 ft 549 kts 49°
2026-04-25 07:11 35.58024 -93.08723 38869 ft 549 kts 49°
2026-04-25 07:12 35.62621 -93.01306 38870 ft 548 kts 49°
2026-04-25 07:12 35.69536 -92.90116 38874 ft 548 kts 49°
2026-04-25 07:13 35.74147 -92.82636 38888 ft 548 kts 49°
2026-04-25 07:13 35.78741 -92.75167 38890 ft 548 kts 49°
2026-04-25 07:14 35.83326 -92.67697 38888 ft 548 kts 49°
2026-04-25 07:14 35.87935 -92.60172 38892 ft 547 kts 50°
2026-04-25 07:15 35.92497 -92.52706 38891 ft 547 kts 50°
2026-04-25 07:15 35.97082 -92.45187 38895 ft 547 kts 50°
2026-04-25 07:16 36.01666 -92.37653 38894 ft 547 kts 50°
2026-04-25 07:16 36.06202 -92.30181 38896 ft 547 kts 50°
2026-04-25 07:17 36.10765 -92.22649 38896 ft 547 kts 50°
2026-04-25 07:17 36.15338 -92.15084 38903 ft 547 kts 50°
2026-04-25 07:18 36.19890 -92.07537 38901 ft 548 kts 51°
2026-04-25 07:18 36.24435 -91.99984 38902 ft 548 kts 51°
2026-04-25 07:19 36.28980 -91.92415 38900 ft 548 kts 51°
2026-04-25 07:19 36.33527 -91.84825 38906 ft 549 kts 51°
2026-04-25 07:20 36.38076 -91.77216 38908 ft 549 kts 51°
2026-04-25 07:20 36.42630 -91.69580 38908 ft 550 kts 51°
2026-04-25 07:21 36.47177 -91.61940 38913 ft 550 kts 51°
2026-04-25 07:21 36.51733 -91.54266 38911 ft 551 kts 51°
2026-04-25 07:22 36.56271 -91.46607 38912 ft 551 kts 51°
2026-04-25 07:22 36.60796 -91.38953 38906 ft 551 kts 52°
2026-04-25 07:23 36.65333 -91.31260 38907 ft 552 kts 52°
2026-04-25 07:23 36.69868 -91.23554 38905 ft 552 kts 52°
2026-04-25 07:24 36.74423 -91.15795 38907 ft 552 kts 52°
2026-04-25 07:24 36.78957 -91.08055 38903 ft 553 kts 52°
2026-04-25 07:25 36.83460 -91.00350 38905 ft 553 kts 52°
2026-04-25 07:25 36.87995 -90.92572 38903 ft 553 kts 52°
2026-04-25 07:26 36.92538 -90.84763 38905 ft 553 kts 52°
2026-04-25 07:26 36.97032 -90.77020 38899 ft 554 kts 52°
2026-04-25 07:27 37.01558 -90.69204 38905 ft 554 kts 53°
2026-04-25 07:27 37.06081 -90.61375 38910 ft 554 kts 53°
2026-04-25 07:28 37.10575 -90.53578 38914 ft 554 kts 53°
2026-04-25 07:28 37.15090 -90.45727 38916 ft 554 kts 53°
2026-04-25 07:29 37.19585 -90.37891 38928 ft 554 kts 53°
2026-04-25 07:29 37.24091 -90.30019 38923 ft 555 kts 53°
2026-04-25 07:30 37.28564 -90.22185 38923 ft 555 kts 53°
2026-04-25 07:30 37.33045 -90.14319 38924 ft 555 kts 53°
2026-04-25 07:31 37.37542 -90.06408 38923 ft 556 kts 54°
2026-04-25 07:31 37.42021 -89.98507 38925 ft 556 kts 54°
2026-04-25 07:32 37.46509 -89.90572 38922 ft 556 kts 54°
2026-04-25 07:32 37.50981 -89.82647 38914 ft 557 kts 54°
2026-04-25 07:33 37.55457 -89.74697 38913 ft 557 kts 54°
2026-04-25 07:33 37.59945 -89.66706 38913 ft 557 kts 54°
2026-04-25 07:34 37.64390 -89.58774 38913 ft 557 kts 54°
2026-04-25 07:34 37.68858 -89.50784 38907 ft 557 kts 54°
2026-04-25 07:35 37.73324 -89.42773 38907 ft 558 kts 54°
2026-04-25 07:35 37.77784 -89.34753 38910 ft 558 kts 54°
2026-04-25 07:36 37.82253 -89.26698 38907 ft 558 kts 54°
2026-04-25 07:36 37.86684 -89.18694 38912 ft 558 kts 54°
2026-04-25 07:37 37.91137 -89.10629 38919 ft 559 kts 55°
2026-04-25 07:37 37.95590 -89.02544 38921 ft 559 kts 55°
2026-04-25 07:38 38.00021 -88.94481 38908 ft 559 kts 55°
2026-04-25 07:38 38.04479 -88.86347 38903 ft 559 kts 55°
2026-04-25 07:39 38.08896 -88.78269 38909 ft 559 kts 55°
2026-04-25 07:39 38.13324 -88.70151 38919 ft 559 kts 55°
2026-04-25 07:40 38.17756 -88.62005 38927 ft 559 kts 55°
2026-04-25 07:40 38.22158 -88.53893 38925 ft 559 kts 55°
2026-04-25 07:41 38.26578 -88.45730 38913 ft 559 kts 55°
2026-04-25 07:41 38.30989 -88.37562 38931 ft 558 kts 55°
2026-04-25 07:42 38.35362 -88.29444 38933 ft 558 kts 55°
2026-04-25 07:42 38.39747 -88.21283 38913 ft 558 kts 55°
2026-04-25 07:43 38.44143 -88.13080 38928 ft 557 kts 55°
2026-04-25 07:43 38.48479 -88.04971 38929 ft 557 kts 56°
2026-04-25 07:44 38.52842 -87.96789 38912 ft 557 kts 56°
2026-04-25 07:44 38.57205 -87.88589 38931 ft 556 kts 56°
2026-04-25 07:45 38.61555 -87.80391 38931 ft 556 kts 56°
2026-04-25 07:45 38.65890 -87.72200 38930 ft 556 kts 56°
2026-04-25 07:46 38.70177 -87.64081 38898 ft 546 kts 56°
2026-04-25 07:46 38.74445 -87.55976 38926 ft 552 kts 56°
2026-04-25 07:47 38.78739 -87.47802 38927 ft 556 kts 56°
2026-04-25 07:47 38.83084 -87.39508 38919 ft 559 kts 56°
2026-04-25 07:48 38.87396 -87.31257 38912 ft 560 kts 56°
2026-04-25 07:48 38.91734 -87.22935 38914 ft 559 kts 56°
2026-04-25 07:49 38.96057 -87.14621 38902 ft 559 kts 56°
2026-04-25 07:49 39.00343 -87.06358 38905 ft 557 kts 56°
2026-04-25 07:50 39.04643 -86.98044 38912 ft 556 kts 56°
2026-04-25 07:50 39.08886 -86.89822 38884 ft 541 kts 56°
2026-04-25 07:51 39.10228 -86.87215 38887 ft 530 kts 56°
2026-04-25 07:51 39.12908 -86.82005 38898 ft 517 kts 56°
2026-04-25 07:51 39.16917 -86.74197 38929 ft 526 kts 56°
2026-04-25 07:52 39.20273 -86.67645 38928 ft 532 kts 56°
2026-04-25 07:52 39.24376 -86.59615 38921 ft 534 kts 56°
2026-04-25 07:53 39.28449 -86.51626 38921 ft 534 kts 56°
2026-04-25 07:53 39.32494 -86.43670 38897 ft 532 kts 56°
2026-04-25 07:54 39.36538 -86.35699 38895 ft 530 kts 56°
2026-04-25 07:54 39.40574 -86.27720 38905 ft 528 kts 56°
2026-04-25 07:55 39.44593 -86.19755 38907 ft 526 kts 56°
2026-04-25 07:55 39.48566 -86.11863 38904 ft 526 kts 57°
2026-04-25 07:56 39.52545 -86.03936 38907 ft 525 kts 57°
2026-04-25 07:56 39.56534 -85.95966 38905 ft 525 kts 57°
2026-04-25 07:57 39.60485 -85.88001 38889 ft 525 kts 59°
2026-04-25 07:57 39.63422 -85.79423 38906 ft 523 kts 74°
2026-04-25 07:58 39.64971 -85.70234 38908 ft 519 kts 84°
2026-04-25 07:58 39.66066 -85.60954 38893 ft 520 kts 83°
2026-04-25 07:59 39.67194 -85.51707 38891 ft 520 kts 83°
2026-04-25 07:59 39.68354 -85.42421 38890 ft 520 kts 83°
2026-04-25 08:00 39.69504 -85.33213 38888 ft 520 kts 83°
2026-04-25 08:00 39.70651 -85.23942 38885 ft 519 kts 83°
2026-04-25 08:01 39.71783 -85.14714 38892 ft 519 kts 83°
2026-04-25 08:01 39.72910 -85.05450 38894 ft 520 kts 83°
2026-04-25 08:02 39.74035 -84.96141 38826 ft 517 kts 83°
2026-04-25 08:02 39.74586 -84.91572 38545 ft 517 kts 83°
2026-04-25 08:02 39.75145 -84.86907 38029 ft 521 kts 83°
2026-04-25 08:03 39.75735 -84.82307 37524 ft 524 kts 81°
2026-04-25 08:03 39.76519 -84.77630 37039 ft 527 kts 78°
2026-04-25 08:03 39.77387 -84.73009 36573 ft 528 kts 77°
2026-04-25 08:03 39.78285 -84.68420 36118 ft 529 kts 77°
2026-04-25 08:04 39.79195 -84.63769 35684 ft 529 kts 77°
2026-04-25 08:04 39.80095 -84.59094 35231 ft 530 kts 78°
2026-04-25 08:04 39.80966 -84.54473 34785 ft 530 kts 78°
2026-04-25 08:04 39.81828 -84.49822 34351 ft 529 kts 78°
2026-04-25 08:05 39.82683 -84.45158 33928 ft 529 kts 78°
2026-04-25 08:05 39.83520 -84.40565 33110 ft 515 kts 78°
2026-04-25 08:05 39.84345 -84.36035 31390 ft 515 kts 78°
2026-04-25 08:05 39.84903 -84.32938 30145 ft 518 kts 79°